Time,TemperatureF,DewpointF,PressureIn,WindDirection,WindDirectionDegrees,WindSpeedMPH,WindSpeedGustMPH,Humidity,HourlyPrecipIn,Conditions,Clouds,dailyrainin,SolarRadiationWatts/m^2,SoftwareType,DateUTC
2013-04-17 00:12:00,24.0,22.0,-100.00,WSW,243,2.0,5.0,90,0.00,,,-99.99,0.000000,,2013-04-17 06:12:00,
2013-04-17 00:22:00,24.0,22.0,-100.00,WSW,243,2.0,5.0,90,0.00,,,-99.99,0.000000,,2013-04-17 06:22:00,
2013-04-17 00:32:00,24.0,22.0,-100.00,WSW,243,2.0,5.0,90,0.00,,,-99.99,0.000000,,2013-04-17 06:32:00,
2013-04-17 00:42:00,24.0,22.0,-100.00,WSW,243,2.0,5.0,90,0.00,,,-99.99,0.000000,,2013-04-17 06:42:00,
2013-04-17 00:50:00,25.0,22.0,-100.00,East,92,1.0,5.0,90,0.00,,,-99.99,0.000000,,2013-04-17 06:50:00,
2013-04-17 01:12:00,25.0,22.0,-100.00,East,92,1.0,5.0,90,0.00,,,-99.99,0.000000,,2013-04-17 07:12:00,
2013-04-17 01:22:00,25.0,22.0,-100.00,East,92,1.0,5.0,90,0.00,,,-99.99,0.000000,,2013-04-17 07:22:00,
2013-04-17 01:32:00,25.0,22.0,-100.00,East,92,1.0,5.0,90,0.00,,,-99.99,0.000000,,2013-04-17 07:32:00,
2013-04-17 01:42:00,25.0,22.0,-100.00,East,92,1.0,5.0,90,0.00,,,-99.99,0.000000,,2013-04-17 07:42:00,
2013-04-17 01:50:00,23.0,20.0,-100.00,East,79,0.0,3.0,89,0.00,,,-99.99,0.000000,,2013-04-17 07:50:00,
2013-04-17 02:22:00,23.0,20.0,-100.00,East,79,0.0,3.0,89,0.00,,,-99.99,0.000000,,2013-04-17 08:22:00,
2013-04-17 02:32:00,23.0,20.0,-100.00,East,79,0.0,3.0,89,0.00,,,-99.99,0.000000,,2013-04-17 08:32:00,
2013-04-17 02:42:00,23.0,20.0,-100.00,East,79,0.0,3.0,89,0.00,,,-99.99,0.000000,,2013-04-17 08:42:00,
2013-04-17 02:50:00,23.0,21.0,-100.00,East,84,1.0,4.0,90,0.00,,,-99.99,0.000000,,2013-04-17 08:50:00,
2013-04-17 03:12:00,23.0,21.0,-100.00,East,84,1.0,4.0,90,0.00,,,-99.99,0.000000,,2013-04-17 09:12:00,
2013-04-17 03:22:00,23.0,21.0,-100.00,East,84,1.0,4.0,90,0.00,,,-99.99,0.000000,,2013-04-17 09:22:00,
2013-04-17 03:33:00,23.0,21.0,-100.00,East,84,1.0,4.0,90,0.00,,,-99.99,0.000000,,2013-04-17 09:33:00,
2013-04-17 03:42:00,23.0,21.0,-100.00,East,84,1.0,4.0,90,0.00,,,-99.99,0.000000,,2013-04-17 09:42:00,
2013-04-17 03:50:00,22.0,20.0,-100.00,ENE,77,1.0,4.0,90,0.00,,,-99.99,0.000000,,2013-04-17 09:50:00,
2013-04-17 04:12:00,22.0,20.0,-100.00,ENE,77,1.0,4.0,90,0.00,,,-99.99,0.000000,,2013-04-17 10:12:00,
2013-04-17 04:23:00,22.0,20.0,-100.00,ENE,77,1.0,4.0,90,0.00,,,-99.99,0.000000,,2013-04-17 10:23:00,
2013-04-17 04:32:00,22.0,20.0,-100.00,ENE,77,1.0,4.0,90,0.00,,,-99.99,0.000000,,2013-04-17 10:32:00,
2013-04-17 04:42:00,22.0,20.0,-100.00,ENE,77,1.0,4.0,90,0.00,,,-99.99,0.000000,,2013-04-17 10:42:00,
2013-04-17 04:50:00,22.0,20.0,-100.00,NNE,28,0.0,2.0,90,0.00,,,-99.99,0.000000,,2013-04-17 10:50:00,
2013-04-17 05:12:00,22.0,20.0,-100.00,NNE,28,0.0,2.0,90,0.00,,,-99.99,0.000000,,2013-04-17 11:12:00,
2013-04-17 05:22:00,22.0,20.0,-100.00,NNE,28,0.0,2.0,90,0.00,,,-99.99,0.000000,,2013-04-17 11:22:00,
2013-04-17 05:32:00,22.0,20.0,-100.00,NNE,28,0.0,2.0,90,0.00,,,-99.99,0.000000,,2013-04-17 11:32:00,
2013-04-17 05:42:00,22.0,20.0,-100.00,NNE,28,0.0,2.0,90,0.00,,,-99.99,0.000000,,2013-04-17 11:42:00,
2013-04-17 05:50:00,23.0,21.0,-100.00,ENE,61,1.0,3.0,90,0.00,,,-99.99,0.000000,,2013-04-17 11:50:00,
2013-04-17 06:12:00,23.0,21.0,-100.00,ENE,61,1.0,3.0,90,0.00,,,-99.99,0.000000,,2013-04-17 12:12:00,
2013-04-17 06:22:00,23.0,21.0,-100.00,ENE,61,1.0,3.0,90,0.00,,,-99.99,0.000000,,2013-04-17 12:22:00,
2013-04-17 06:32:00,23.0,21.0,-100.00,ENE,61,1.0,3.0,90,0.00,,,-99.99,0.000000,,2013-04-17 12:32:00,
2013-04-17 06:42:00,23.0,21.0,-100.00,ENE,61,1.0,3.0,90,0.00,,,-99.99,0.000000,,2013-04-17 12:42:00,
2013-04-17 06:50:00,22.0,20.0,-100.00,NE,34,5.0,9.0,90,0.00,,,-99.99,0.000000,,2013-04-17 12:50:00,
2013-04-17 07:22:00,22.0,20.0,-100.00,NE,34,5.0,9.0,90,0.00,,,-99.99,0.000000,,2013-04-17 13:22:00,
2013-04-17 07:32:00,22.0,20.0,-100.00,NE,34,5.0,9.0,90,0.00,,,-99.99,0.000000,,2013-04-17 13:32:00,
2013-04-17 07:42:00,22.0,20.0,-100.00,NE,34,5.0,9.0,90,0.00,,,-99.99,0.000000,,2013-04-17 13:42:00,
2013-04-17 07:50:00,21.0,18.0,-100.00,ENE,71,2.0,7.0,88,0.00,,,-99.99,5.000000,,2013-04-17 13:50:00,
2013-04-17 08:12:00,21.0,18.0,-100.00,ENE,71,2.0,7.0,88,0.00,,,-99.99,5.000000,,2013-04-17 14:12:00,
2013-04-17 08:22:00,21.0,18.0,-100.00,ENE,71,2.0,7.0,88,0.00,,,-99.99,5.000000,,2013-04-17 14:22:00,
2013-04-17 08:32:00,21.0,18.0,-100.00,ENE,71,2.0,7.0,88,0.00,,,-99.99,5.000000,,2013-04-17 14:32:00,
2013-04-17 08:42:00,21.0,18.0,-100.00,ENE,71,2.0,7.0,88,0.00,,,-99.99,5.000000,,2013-04-17 14:42:00,
2013-04-17 08:50:00,24.0,20.0,-100.00,NNE,30,3.0,7.0,86,0.00,,,-99.99,29.000000,,2013-04-17 14:50:00,
2013-04-17 09:22:00,24.0,20.0,-100.00,NNE,30,3.0,7.0,86,0.00,,,-99.99,29.000000,,2013-04-17 15:22:00,
2013-04-17 09:33:00,24.0,20.0,-100.00,NNE,30,3.0,7.0,86,0.00,,,-99.99,29.000000,,2013-04-17 15:33:00,
2013-04-17 09:42:00,24.0,20.0,-100.00,NNE,30,3.0,7.0,86,0.00,,,-99.99,29.000000,,2013-04-17 15:42:00,
2013-04-17 09:50:00,23.0,19.0,-100.00,East,83,5.0,8.0,86,0.00,,,-99.99,54.000000,,2013-04-17 15:50:00,
2013-04-17 10:22:00,23.0,19.0,-100.00,East,83,5.0,8.0,86,0.00,,,-99.99,54.000000,,2013-04-17 16:22:00,
2013-04-17 10:32:00,23.0,19.0,-100.00,East,83,5.0,8.0,86,0.00,,,-99.99,54.000000,,2013-04-17 16:32:00,
2013-04-17 10:42:00,23.0,19.0,-100.00,East,83,5.0,8.0,86,0.00,,,-99.99,54.000000,,2013-04-17 16:42:00,
2013-04-17 10:50:00,25.0,19.0,-100.00,NNW,340,9.0,17.0,76,0.00,,,-99.99,58.000000,,2013-04-17 16:50:00,
2013-04-17 11:22:00,25.0,19.0,-100.00,NNW,340,9.0,17.0,76,0.00,,,-99.99,58.000000,,2013-04-17 17:22:00,
2013-04-17 11:33:00,25.0,19.0,-100.00,NNW,340,9.0,17.0,76,0.00,,,-99.99,58.000000,,2013-04-17 17:33:00,
2013-04-17 11:42:00,25.0,19.0,-100.00,NNW,340,9.0,17.0,76,0.00,,,-99.99,58.000000,,2013-04-17 17:42:00,
2013-04-17 12:12:00,27.0,18.0,-100.00,NNW,342,9.0,18.0,68,0.00,,,-99.99,124.000000,,2013-04-17 18:12:00,
2013-04-17 12:22:00,27.0,18.0,-100.00,NNW,342,9.0,18.0,68,0.00,,,-99.99,124.000000,,2013-04-17 18:22:00,
2013-04-17 12:32:00,27.0,18.0,-100.00,NNW,342,9.0,18.0,68,0.00,,,-99.99,124.000000,,2013-04-17 18:32:00,
2013-04-17 12:50:00,27.0,18.0,-100.00,North,6,8.0,15.0,69,-99.99,,,-99.99,364.000000,,2013-04-17 18:50:00,
2013-04-17 13:12:00,27.0,18.0,-100.00,North,6,8.0,15.0,69,-99.99,,,-99.99,364.000000,,2013-04-17 19:12:00,
2013-04-17 13:22:00,27.0,18.0,-100.00,North,6,8.0,15.0,69,-99.99,,,-99.99,364.000000,,2013-04-17 19:22:00,
2013-04-17 13:32:00,27.0,18.0,-100.00,North,6,8.0,15.0,69,-99.99,,,-99.99,364.000000,,2013-04-17 19:32:00,
2013-04-17 13:42:00,27.0,18.0,-100.00,North,6,8.0,15.0,69,-99.99,,,-99.99,364.000000,,2013-04-17 19:42:00,
2013-04-17 13:50:00,28.0,18.0,-100.00,North,9,10.0,18.0,65,0.10,,,-99.99,758.000000,,2013-04-17 19:50:00,
2013-04-17 14:22:00,28.0,18.0,-100.00,North,9,10.0,18.0,65,0.10,,,-99.99,758.000000,,2013-04-17 20:22:00,
2013-04-17 14:32:00,28.0,18.0,-100.00,North,9,10.0,18.0,65,0.10,,,-99.99,758.000000,,2013-04-17 20:32:00,
2013-04-17 14:42:00,28.0,18.0,-100.00,North,9,10.0,18.0,65,0.10,,,-99.99,758.000000,,2013-04-17 20:42:00,
2013-04-17 14:50:00,26.0,17.0,-100.00,North,0,9.0,18.0,68,0.05,,,-99.99,558.000000,,2013-04-17 20:50:00,
2013-04-17 15:12:00,26.0,17.0,-100.00,North,0,9.0,18.0,68,0.05,,,-99.99,558.000000,,2013-04-17 21:12:00,
2013-04-17 15:22:00,26.0,17.0,-100.00,North,0,9.0,18.0,68,0.05,,,-99.99,558.000000,,2013-04-17 21:22:00,
2013-04-17 15:32:00,26.0,17.0,-100.00,North,0,9.0,18.0,68,0.05,,,-99.99,558.000000,,2013-04-17 21:32:00,
2013-04-17 15:42:00,26.0,17.0,-100.00,North,0,9.0,18.0,68,0.05,,,-99.99,558.000000,,2013-04-17 21:42:00,
2013-04-17 15:50:00,25.0,16.0,-100.00,NNW,328,11.0,18.0,69,0.02,,,-99.99,484.000000,,2013-04-17 21:50:00,
2013-04-17 16:12:00,25.0,16.0,-100.00,NNW,328,11.0,18.0,69,0.02,,,-99.99,484.000000,,2013-04-17 22:12:00,
2013-04-17 16:22:00,25.0,16.0,-100.00,NNW,328,11.0,18.0,69,0.02,,,-99.99,484.000000,,2013-04-17 22:22:00,
2013-04-17 16:33:00,25.0,16.0,-100.00,NNW,328,11.0,18.0,69,0.02,,,-99.99,484.000000,,2013-04-17 22:33:00,
2013-04-17 16:42:00,25.0,16.0,-100.00,NNW,328,11.0,18.0,69,0.02,,,-99.99,484.000000,,2013-04-17 22:42:00,
2013-04-17 16:50:00,25.0,17.0,-100.00,NNW,332,10.0,20.0,70,0.02,,,-99.99,450.000000,,2013-04-17 22:50:00,
2013-04-17 17:22:00,25.0,17.0,-100.00,NNW,332,10.0,20.0,70,0.02,,,-99.99,450.000000,,2013-04-17 23:22:00,
2013-04-17 17:32:00,25.0,17.0,-100.00,NNW,332,10.0,20.0,70,0.02,,,-99.99,450.000000,,2013-04-17 23:32:00,
2013-04-17 17:42:00,25.0,17.0,-100.00,NNW,332,10.0,20.0,70,0.02,,,-99.99,450.000000,,2013-04-17 23:42:00,
2013-04-17 17:50:00,21.0,16.0,-100.00,NNE,15,9.0,19.0,82,0.00,,,0.22,255.000000,,2013-04-17 23:50:00,
2013-04-17 18:22:00,21.0,16.0,-100.00,NNE,15,9.0,19.0,82,0.00,,,0.22,255.000000,,2013-04-18 00:22:00,
2013-04-17 18:32:00,21.0,16.0,-100.00,NNE,15,9.0,19.0,82,0.00,,,0.22,255.000000,,2013-04-18 00:32:00,
2013-04-17 18:42:00,21.0,16.0,-100.00,NNE,15,9.0,19.0,82,0.00,,,0.22,255.000000,,2013-04-18 00:42:00,
2013-04-17 18:50:00,20.0,14.0,-100.00,North,5,9.0,17.0,78,0.00,,,0.22,171.000000,,2013-04-18 00:50:00,
2013-04-17 19:12:00,20.0,14.0,-100.00,North,5,9.0,17.0,78,0.00,,,0.22,171.000000,,2013-04-18 01:12:00,
2013-04-17 19:22:00,20.0,14.0,-100.00,North,5,9.0,17.0,78,0.00,,,0.22,171.000000,,2013-04-18 01:22:00,
2013-04-17 19:32:00,20.0,14.0,-100.00,North,5,9.0,17.0,78,0.00,,,0.22,171.000000,,2013-04-18 01:32:00,
2013-04-17 19:42:00,20.0,14.0,-100.00,North,5,9.0,17.0,78,0.00,,,0.22,171.000000,,2013-04-18 01:42:00,
2013-04-17 19:50:00,19.0,13.0,-100.00,North,1,8.0,18.0,78,0.00,,,0.22,69.000000,,2013-04-18 01:50:00,
2013-04-17 20:22:00,19.0,13.0,-100.00,North,1,8.0,18.0,78,0.00,,,0.22,69.000000,,2013-04-18 02:22:00,
2013-04-17 20:32:00,19.0,13.0,-100.00,North,1,8.0,18.0,78,0.00,,,0.22,69.000000,,2013-04-18 02:32:00,
2013-04-17 20:42:00,19.0,13.0,-100.00,North,1,8.0,18.0,78,0.00,,,0.22,69.000000,,2013-04-18 02:42:00,
2013-04-17 20:50:00,17.0,10.0,-100.00,North,356,8.0,18.0,74,0.00,,,0.22,1.000000,,2013-04-18 02:50:00,
2013-04-17 21:22:00,17.0,10.0,-100.00,North,356,8.0,18.0,74,0.00,,,0.22,1.000000,,2013-04-18 03:22:00,
2013-04-17 21:33:00,17.0,10.0,-100.00,North,356,8.0,18.0,74,0.00,,,0.22,1.000000,,2013-04-18 03:33:00,
2013-04-17 21:43:00,17.0,10.0,-100.00,North,356,8.0,18.0,74,0.00,,,0.22,1.000000,,2013-04-18 03:43:00,
2013-04-17 21:50:00,15.0,9.0,-100.00,North,354,7.0,15.0,76,0.00,,,0.22,0.000000,,2013-04-18 03:50:00,
2013-04-17 22:23:00,15.0,9.0,-100.00,North,354,7.0,15.0,76,0.00,,,0.22,0.000000,,2013-04-18 04:23:00,
2013-04-17 22:33:00,15.0,9.0,-100.00,North,354,7.0,15.0,76,0.00,,,0.22,0.000000,,2013-04-18 04:33:00,
2013-04-17 22:43:00,15.0,9.0,-100.00,North,354,7.0,15.0,76,0.00,,,0.22,0.000000,,2013-04-18 04:43:00,
2013-04-17 22:50:00,13.0,7.0,-100.00,North,354,8.0,13.0,77,0.00,,,0.22,0.000000,,2013-04-18 04:50:00,
2013-04-17 23:12:00,13.0,7.0,-100.00,North,354,8.0,13.0,77,0.00,,,0.22,0.000000,,2013-04-18 05:12:00,
2013-04-17 23:22:00,13.0,7.0,-100.00,North,354,8.0,13.0,77,0.00,,,0.22,0.000000,,2013-04-18 05:22:00,
2013-04-17 23:32:00,13.0,7.0,-100.00,North,354,8.0,13.0,77,0.00,,,0.22,0.000000,,2013-04-18 05:32:00,
2013-04-17 23:42:00,13.0,7.0,-100.00,North,354,8.0,13.0,77,0.00,,,0.22,0.000000,,2013-04-18 05:42:00,
2013-04-17 23:50:00,12.0,6.0,-100.00,NNW,341,5.0,12.0,76,0.00,,,0.22,0.000000,,2013-04-18 05:50:00,